Overview Statistics Trail Chart Weather Telemetry Raw packets
 

This is the latest recevied weather packets stored in our database for station/object N7IGG. If no packets are shown the sender has not sent any weather packets the latest 10 day(s).

<< 89 90 91 92 93 94 95 >>
Time Temp. Humidity Pressure Rain* Wind** Luminosity Snow
1777526557 13.89° C 76% 1022.6 hPa 0 mm - 0 W/m² -
1777526252 13.33° C 77% 1022.5 hPa 0 mm - 0 W/m² -
1777525948 13.33° C 78% 1022.4 hPa 0 mm - 0 W/m² -
1777525646 13.33° C 78% 1022.4 hPa 0 mm - 0 W/m² -
1777525343 13.33° C 79% 1022.6 hPa 0 mm - 0 W/m² -
1777525038 13.33° C 79% 1022.4 hPa 0 mm - 0 W/m² -
1777524735 13.33° C 80% 1022.3 hPa 0 mm - 0 W/m² -
1777524434 13.33° C 80% 1022.4 hPa 0 mm - 0 W/m² -
1777524130 13.33° C 80% 1022.5 hPa 0 mm - 0 W/m² -
1777523826 12.78° C 80% 1022.5 hPa 0 mm - 0 W/m² -
1777523523 12.78° C 80% 1022.4 hPa 0 mm - 0 W/m² -
1777523219 12.78° C 80% 1022.5 hPa 0 mm - 0 W/m² -
1777522915 12.78° C 80% 1022.4 hPa 0 mm - 0 W/m² -
1777522613 12.78° C 80% 1022.5 hPa 0 mm - 0 W/m² -
1777522309 12.78° C 79% 1022.4 hPa 0 mm - 0 W/m² -
1777522006 13.33° C 79% 1022.5 hPa 0 mm - 0 W/m² -
1777521702 13.33° C 79% 1022.2 hPa 0 mm - 0 W/m² -
1777521399 13.33° C 78% 1022 hPa 0 mm - 0 W/m² -
1777521096 13.33° C 77% 1022.3 hPa 0 mm - 0 W/m² -
1777520794 13.33° C 76% 1022.3 hPa 0 mm - 0 W/m² -
1777520490 13.89° C 74% 1022.2 hPa 0 mm - 0 W/m² -
1777520187 14.44° C 72% 1022.1 hPa 0 mm - 0 W/m² -
1777519885 15° C 69% 1022.1 hPa 0 mm - 0 W/m² -
1777519582 15.56° C 68% 1022.1 hPa 0 mm - 0 W/m² -
1777519278 15.56° C 66% 1021.8 hPa 0 mm - 0 W/m² -

* Rain latest hour (hover to see other rain measurements)
** Current wind speed in m/s (hover to see current wind gust speed)